Time,TemperatureF,DewpointF,PressureIn,WindDirection,WindDirectionDegrees,WindSpeedMPH,WindSpeedGustMPH,Humidity,HourlyPrecipIn,Conditions,Clouds,dailyrainin,SoftwareType,DateUTC
2013-10-13 00:03:00,43.0,34.2,30.09,West,270,14.0,14.0,71,0.00,,,0.00,meteohub,2013-10-13 05:03:00,
2013-10-13 00:08:00,42.8,34.0,30.10,West,270,11.0,14.0,71,0.00,,,0.00,meteohub,2013-10-13 05:08:00,
2013-10-13 00:13:00,42.6,34.2,30.10,West,270,10.0,14.0,72,0.00,,,0.00,meteohub,2013-10-13 05:13:00,
2013-10-13 00:18:00,42.6,34.2,30.10,West,270,11.0,14.0,72,0.00,,,0.00,meteohub,2013-10-13 05:18:00,
2013-10-13 00:23:00,42.6,34.5,30.10,West,270,10.0,12.0,73,0.00,,,0.00,meteohub,2013-10-13 05:23:00,
2013-10-13 00:28:00,42.6,34.5,30.10,NW,315,9.0,11.0,73,0.00,,,0.00,meteohub,2013-10-13 05:28:00,
2013-10-13 00:33:00,42.4,34.3,30.10,West,270,11.0,12.0,73,0.00,,,0.00,meteohub,2013-10-13 05:33:00,
2013-10-13 00:38:00,42.3,34.2,30.11,West,270,10.0,12.0,73,0.00,,,0.00,meteohub,2013-10-13 05:38:00,
2013-10-13 00:43:00,42.3,34.2,30.11,West,270,9.0,12.0,73,0.00,,,0.00,meteohub,2013-10-13 05:43:00,
2013-10-13 00:48:00,42.1,34.0,30.11,West,270,11.0,12.0,73,0.00,,,0.00,meteohub,2013-10-13 05:48:00,
2013-10-13 00:53:00,41.9,34.2,30.12,West,270,11.0,12.0,74,0.00,,,0.00,meteohub,2013-10-13 05:53:00,
2013-10-13 00:58:00,41.9,34.2,30.12,West,270,11.0,12.0,74,0.00,,,0.00,meteohub,2013-10-13 05:58:00,
2013-10-13 01:04:00,41.9,34.2,30.12,West,270,8.0,12.0,74,0.00,,,0.00,meteohub,2013-10-13 06:04:00,
2013-10-13 01:09:00,41.7,34.0,30.12,NW,315,11.0,12.0,74,0.00,,,0.00,meteohub,2013-10-13 06:09:00,
2013-10-13 01:14:00,41.5,33.8,30.13,West,270,10.0,11.0,74,0.00,,,0.00,meteohub,2013-10-13 06:14:00,
2013-10-13 01:19:00,41.4,34.0,30.12,West,270,10.0,11.0,75,0.00,,,0.00,meteohub,2013-10-13 06:19:00,
2013-10-13 01:24:00,41.2,33.8,30.13,West,270,8.0,11.0,75,0.00,,,0.00,meteohub,2013-10-13 06:24:00,
2013-10-13 01:29:00,41.0,33.6,30.13,West,270,8.0,11.0,75,0.00,,,0.00,meteohub,2013-10-13 06:29:00,
2013-10-13 01:34:00,41.0,34.0,30.14,West,270,9.0,11.0,76,0.00,,,0.00,meteohub,2013-10-13 06:34:00,
2013-10-13 01:39:00,40.8,34.2,30.14,West,270,9.0,11.0,77,0.00,,,0.00,meteohub,2013-10-13 06:39:00,
2013-10-13 01:44:00,40.8,34.2,30.14,West,270,7.0,10.0,77,0.00,,,0.00,meteohub,2013-10-13 06:44:00,
2013-10-13 01:49:00,40.6,34.0,30.14,West,270,4.0,10.0,77,0.00,,,0.00,meteohub,2013-10-13 06:49:00,
2013-10-13 01:54:00,40.1,33.4,30.14,West,270,5.0,9.0,77,0.00,,,0.00,meteohub,2013-10-13 06:54:00,
2013-10-13 01:59:00,39.4,32.7,30.14,West,270,5.0,8.0,77,0.00,,,0.00,meteohub,2013-10-13 06:59:00,
2013-10-13 02:04:00,38.5,32.2,30.14,West,270,4.0,6.0,78,0.00,,,0.00,meteohub,2013-10-13 07:04:00,
2013-10-13 02:09:00,37.9,31.6,30.14,West,270,4.0,6.0,78,0.00,,,0.00,meteohub,2013-10-13 07:09:00,
2013-10-13 02:14:00,37.6,31.6,30.15,West,270,4.0,6.0,79,0.00,,,0.00,meteohub,2013-10-13 07:14:00,
2013-10-13 02:19:00,37.2,30.0,30.15,West,270,3.0,5.0,75,0.00,,,0.00,meteohub,2013-10-13 07:19:00,
2013-10-13 02:24:00,37.0,30.2,30.15,West,270,5.0,5.0,76,0.00,,,0.00,meteohub,2013-10-13 07:24:00,
2013-10-13 02:30:00,37.0,30.6,30.15,West,270,8.0,8.0,77,0.00,,,0.00,meteohub,2013-10-13 07:30:00,
2013-10-13 02:35:00,38.3,33.3,30.15,West,270,7.0,7.0,82,0.00,,,0.00,meteohub,2013-10-13 07:35:00,
2013-10-13 02:40:00,39.0,34.0,30.15,West,270,7.0,8.0,82,0.00,,,0.00,meteohub,2013-10-13 07:40:00,
2013-10-13 02:45:00,39.6,34.2,30.16,West,270,11.0,11.0,81,0.00,,,0.00,meteohub,2013-10-13 07:45:00,
2013-10-13 02:50:00,39.7,34.3,30.16,West,270,8.0,8.0,81,0.00,,,0.00,meteohub,2013-10-13 07:50:00,
2013-10-13 02:55:00,39.6,34.2,30.16,West,270,7.0,11.0,81,0.00,,,0.00,meteohub,2013-10-13 07:55:00,
2013-10-13 03:00:00,39.4,33.8,30.16,West,270,7.0,11.0,80,0.00,,,0.00,meteohub,2013-10-13 08:00:00,
2013-10-13 03:05:00,39.2,33.6,30.16,West,270,7.0,8.0,80,0.00,,,0.00,meteohub,2013-10-13 08:05:00,
2013-10-13 03:10:00,38.5,33.1,30.16,West,270,7.0,8.0,81,0.00,,,0.00,meteohub,2013-10-13 08:10:00,
2013-10-13 03:15:00,38.5,33.4,30.17,West,270,7.0,8.0,82,0.00,,,0.00,meteohub,2013-10-13 08:15:00,
2013-10-13 03:20:00,38.8,33.8,30.16,West,270,7.0,8.0,82,0.00,,,0.00,meteohub,2013-10-13 08:20:00,
2013-10-13 03:25:00,38.8,33.8,30.17,West,270,5.0,8.0,82,0.00,,,0.00,meteohub,2013-10-13 08:25:00,
2013-10-13 03:30:00,38.8,33.8,30.17,West,270,6.0,8.0,82,0.00,,,0.00,meteohub,2013-10-13 08:30:00,
2013-10-13 03:35:00,38.7,33.6,30.17,West,270,8.0,8.0,82,0.00,,,0.00,meteohub,2013-10-13 08:35:00,
2013-10-13 03:40:00,38.7,33.6,30.17,West,270,8.0,8.0,82,0.00,,,0.00,meteohub,2013-10-13 08:40:00,
2013-10-13 03:45:00,39.0,34.0,30.18,West,270,8.0,9.0,82,0.00,,,0.00,meteohub,2013-10-13 08:45:00,
2013-10-13 03:51:00,39.0,34.0,30.18,West,270,8.0,9.0,82,0.00,,,0.00,meteohub,2013-10-13 08:51:00,
2013-10-13 03:56:00,38.7,33.6,30.17,West,270,7.0,9.0,82,0.00,,,0.00,meteohub,2013-10-13 08:56:00,
2013-10-13 04:01:00,38.1,33.1,30.17,West,270,8.0,8.0,82,0.00,,,0.00,meteohub,2013-10-13 09:01:00,
2013-10-13 04:06:00,37.8,32.7,30.18,West,270,8.0,8.0,82,0.00,,,0.00,meteohub,2013-10-13 09:06:00,
2013-10-13 04:11:00,37.4,32.4,30.18,West,270,7.0,8.0,82,0.00,,,0.00,meteohub,2013-10-13 09:11:00,
2013-10-13 04:16:00,36.9,30.6,30.18,West,270,7.0,8.0,78,0.00,,,0.00,meteohub,2013-10-13 09:16:00,
2013-10-13 04:21:00,36.5,30.4,30.18,West,270,7.0,8.0,78,0.00,,,0.00,meteohub,2013-10-13 09:21:00,
2013-10-13 04:27:00,36.0,29.8,30.19,West,270,7.0,8.0,78,0.00,,,0.00,meteohub,2013-10-13 09:27:00,
2013-10-13 04:32:00,35.6,29.7,30.19,West,270,5.0,7.0,79,0.00,,,0.00,meteohub,2013-10-13 09:32:00,
2013-10-13 04:37:00,35.4,29.8,30.19,West,270,6.0,7.0,80,0.00,,,0.00,meteohub,2013-10-13 09:37:00,
2013-10-13 04:42:00,35.2,29.7,30.19,West,270,7.0,7.0,80,0.00,,,0.00,meteohub,2013-10-13 09:42:00,
2013-10-13 04:47:00,35.2,29.7,30.19,West,270,7.0,7.0,80,0.00,,,0.00,meteohub,2013-10-13 09:47:00,
2013-10-13 04:52:00,35.2,30.0,30.19,West,270,7.0,7.0,81,0.00,,,0.00,meteohub,2013-10-13 09:52:00,
2013-10-13 04:57:00,35.2,30.0,30.19,West,270,6.0,8.0,81,0.00,,,0.00,meteohub,2013-10-13 09:57:00,
2013-10-13 05:02:00,35.2,30.0,30.19,West,270,7.0,8.0,81,0.00,,,0.00,meteohub,2013-10-13 10:02:00,
2013-10-13 05:07:00,35.2,30.0,30.19,West,270,6.0,8.0,81,0.00,,,0.00,meteohub,2013-10-13 10:07:00,
2013-10-13 05:12:00,35.1,29.8,30.20,West,270,5.0,8.0,81,0.00,,,0.00,meteohub,2013-10-13 10:12:00,
2013-10-13 05:17:00,34.7,29.5,30.20,West,270,5.0,7.0,81,0.00,,,0.00,meteohub,2013-10-13 10:17:00,
2013-10-13 05:22:00,34.5,29.3,30.21,West,270,4.0,7.0,81,0.00,,,0.00,meteohub,2013-10-13 10:22:00,
2013-10-13 05:27:00,34.2,28.9,30.21,West,270,4.0,6.0,81,0.00,,,0.00,meteohub,2013-10-13 10:27:00,
2013-10-13 05:32:00,34.0,28.8,30.21,West,270,3.0,5.0,81,0.00,,,0.00,meteohub,2013-10-13 10:32:00,
2013-10-13 05:38:00,34.0,28.8,30.21,WSW,248,2.0,4.0,81,0.00,,,0.00,meteohub,2013-10-13 10:38:00,
2013-10-13 05:43:00,33.8,28.6,30.20,SW,225,3.0,4.0,81,0.00,,,0.00,meteohub,2013-10-13 10:43:00,
2013-10-13 05:48:00,33.6,28.8,30.21,West,270,3.0,4.0,82,0.00,,,0.00,meteohub,2013-10-13 10:48:00,
2013-10-13 05:53:00,33.4,28.6,30.21,WSW,248,3.0,4.0,82,0.00,,,0.00,meteohub,2013-10-13 10:53:00,
2013-10-13 05:58:00,33.3,28.4,30.21,West,270,3.0,4.0,82,0.00,,,0.00,meteohub,2013-10-13 10:58:00,
2013-10-13 06:03:00,33.1,28.2,30.22,South,180,4.0,4.0,82,0.00,,,0.00,meteohub,2013-10-13 11:03:00,
2013-10-13 06:08:00,32.9,28.0,30.22,WSW,248,3.0,4.0,82,0.00,,,0.00,meteohub,2013-10-13 11:08:00,
2013-10-13 06:13:00,32.7,27.9,30.22,West,270,3.0,4.0,82,0.00,,,0.00,meteohub,2013-10-13 11:13:00,
2013-10-13 06:18:00,32.7,27.9,30.22,West,270,3.0,4.0,82,0.00,,,0.00,meteohub,2013-10-13 11:18:00,
2013-10-13 06:23:00,32.7,28.2,30.22,NW,315,2.0,4.0,83,0.00,,,0.00,meteohub,2013-10-13 11:23:00,
2013-10-13 06:28:00,33.1,28.4,30.22,West,270,2.0,3.0,83,0.00,,,0.00,meteohub,2013-10-13 11:28:00,
2013-10-13 06:33:00,33.4,28.8,30.22,West,270,2.0,3.0,83,0.00,,,0.00,meteohub,2013-10-13 11:33:00,
2013-10-13 06:38:00,34.5,29.8,30.22,West,270,4.0,4.0,83,0.00,,,0.00,meteohub,2013-10-13 11:38:00,
2013-10-13 06:43:00,35.1,30.4,30.22,West,270,3.0,4.0,83,0.00,,,0.00,meteohub,2013-10-13 11:43:00,
2013-10-13 06:48:00,34.7,30.0,30.22,West,270,4.0,4.0,83,0.00,,,0.00,meteohub,2013-10-13 11:48:00,
2013-10-13 06:53:00,34.5,29.8,30.22,West,270,4.0,4.0,83,0.00,,,0.00,meteohub,2013-10-13 11:53:00,
2013-10-13 06:59:00,34.3,29.7,30.23,West,270,4.0,4.0,83,0.00,,,0.00,meteohub,2013-10-13 11:59:00,
2013-10-13 07:04:00,34.2,29.3,30.23,West,270,4.0,6.0,82,0.00,,,0.00,meteohub,2013-10-13 12:04:00,
2013-10-13 07:09:00,33.8,28.9,30.24,West,270,4.0,6.0,82,0.00,,,0.00,meteohub,2013-10-13 12:09:00,
2013-10-13 07:14:00,33.6,29.3,30.24,West,270,3.0,6.0,84,0.00,,,0.00,meteohub,2013-10-13 12:14:00,
2013-10-13 07:19:00,33.4,28.8,30.24,West,270,4.0,4.0,83,0.00,,,0.00,meteohub,2013-10-13 12:19:00,
2013-10-13 07:24:00,33.3,28.6,30.24,West,270,4.0,4.0,83,0.00,,,0.00,meteohub,2013-10-13 12:24:00,
2013-10-13 07:29:00,33.1,28.8,30.24,West,270,3.0,4.0,84,0.00,,,0.00,meteohub,2013-10-13 12:29:00,
2013-10-13 07:34:00,32.9,28.6,30.25,West,270,3.0,4.0,84,0.00,,,0.00,meteohub,2013-10-13 12:34:00,
2013-10-13 07:39:00,32.7,28.4,30.25,West,270,2.0,4.0,84,0.00,,,0.00,meteohub,2013-10-13 12:39:00,
2013-10-13 07:44:00,32.7,28.4,30.24,South,180,4.0,4.0,84,0.00,,,0.00,meteohub,2013-10-13 12:44:00,
2013-10-13 07:49:00,32.9,28.6,30.25,West,270,3.0,4.0,84,0.00,,,0.00,meteohub,2013-10-13 12:49:00,
2013-10-13 07:54:00,33.3,28.9,30.25,West,270,3.0,4.0,84,0.00,,,0.00,meteohub,2013-10-13 12:54:00,
2013-10-13 07:59:00,33.6,29.7,30.26,West,270,2.0,4.0,85,0.00,,,0.00,meteohub,2013-10-13 12:59:00,
2013-10-13 08:04:00,34.0,29.7,30.25,West,270,3.0,3.0,84,0.00,,,0.00,meteohub,2013-10-13 13:04:00,
2013-10-13 08:09:00,34.7,30.4,30.26,West,270,3.0,3.0,84,0.00,,,0.00,meteohub,2013-10-13 13:09:00,
2013-10-13 08:14:00,35.6,31.3,30.26,SW,225,2.0,4.0,84,0.00,,,0.00,meteohub,2013-10-13 13:14:00,
2013-10-13 08:19:00,36.0,31.6,30.26,SW,225,0.0,4.0,84,0.00,,,0.00,meteohub,2013-10-13 13:19:00,
2013-10-13 08:25:00,36.3,32.0,30.26,West,270,4.0,4.0,84,0.00,,,0.00,meteohub,2013-10-13 13:25:00,
2013-10-13 08:30:00,37.0,32.7,30.26,West,270,4.0,4.0,84,0.00,,,0.00,meteohub,2013-10-13 13:30:00,
2013-10-13 08:35:00,37.8,34.5,30.27,SW,225,4.0,4.0,88,0.00,,,0.00,meteohub,2013-10-13 13:35:00,
2013-10-13 08:40:00,38.5,35.2,30.27,West,270,4.0,4.0,88,0.00,,,0.00,meteohub,2013-10-13 13:40:00,
2013-10-13 08:45:00,38.8,35.2,30.27,West,270,4.0,5.0,87,0.00,,,0.00,meteohub,2013-10-13 13:45:00,
2013-10-13 08:50:00,39.4,35.6,30.27,West,270,4.0,5.0,86,0.00,,,0.00,meteohub,2013-10-13 13:50:00,
2013-10-13 08:55:00,40.1,36.3,30.28,West,270,3.0,5.0,86,0.00,,,0.00,meteohub,2013-10-13 13:55:00,
2013-10-13 09:00:00,41.0,36.9,30.27,West,270,2.0,4.0,85,0.00,,,0.00,meteohub,2013-10-13 14:00:00,
2013-10-13 09:05:00,41.5,37.4,30.27,West,270,4.0,4.0,85,0.00,,,0.00,meteohub,2013-10-13 14:05:00,
2013-10-13 09:10:00,41.9,37.8,30.28,West,270,5.0,5.0,85,0.00,,,0.00,meteohub,2013-10-13 14:10:00,
2013-10-13 09:15:00,42.3,37.8,30.28,West,270,5.0,5.0,84,0.00,,,0.00,meteohub,2013-10-13 14:15:00,
2013-10-13 09:20:00,42.6,38.1,30.28,West,270,6.0,6.0,84,0.00,,,0.00,meteohub,2013-10-13 14:20:00,
2013-10-13 09:25:00,43.0,38.1,30.28,West,270,4.0,6.0,83,0.00,,,0.00,meteohub,2013-10-13 14:25:00,
2013-10-13 09:30:00,43.5,38.5,30.28,West,270,5.0,6.0,82,0.00,,,0.00,meteohub,2013-10-13 14:30:00,
2013-10-13 09:35:00,43.9,38.5,30.28,NW,315,4.0,6.0,81,0.00,,,0.00,meteohub,2013-10-13 14:35:00,
2013-10-13 09:40:00,44.4,38.7,30.29,West,270,6.0,6.0,80,0.00,,,0.00,meteohub,2013-10-13 14:40:00,
2013-10-13 09:46:00,44.6,37.8,30.29,NW,315,5.0,7.0,77,0.00,,,0.00,meteohub,2013-10-13 14:46:00,
2013-10-13 09:51:00,45.0,37.2,30.29,NW,315,5.0,7.0,74,0.00,,,0.00,meteohub,2013-10-13 14:51:00,
2013-10-13 09:56:00,45.5,37.8,30.30,West,270,4.0,7.0,74,0.00,,,0.00,meteohub,2013-10-13 14:56:00,
2013-10-13 10:01:00,46.0,38.3,30.30,NW,315,4.0,7.0,74,0.00,,,0.00,meteohub,2013-10-13 15:01:00,
2013-10-13 10:06:00,46.6,38.7,30.30,NW,315,4.0,7.0,74,0.00,,,0.00,meteohub,2013-10-13 15:06:00,
2013-10-13 10:11:00,47.1,38.8,30.30,West,270,4.0,6.0,73,0.00,,,0.00,meteohub,2013-10-13 15:11:00,
2013-10-13 10:16:00,47.7,39.4,30.30,West,270,4.0,6.0,73,0.00,,,0.00,meteohub,2013-10-13 15:16:00,
2013-10-13 10:21:00,48.4,39.7,30.30,West,270,4.0,6.0,72,0.00,,,0.00,meteohub,2013-10-13 15:21:00,
2013-10-13 10:26:00,49.1,40.5,30.30,West,270,2.0,5.0,72,0.00,,,0.00,meteohub,2013-10-13 15:26:00,
2013-10-13 10:31:00,50.0,41.0,30.30,WSW,248,3.0,5.0,71,0.00,,,0.00,meteohub,2013-10-13 15:31:00,
2013-10-13 10:36:00,50.4,41.0,30.30,NW,315,0.0,4.0,70,0.00,,,0.00,meteohub,2013-10-13 15:36:00,
2013-10-13 10:41:00,50.9,41.5,30.30,West,270,5.0,5.0,70,0.00,,,0.00,meteohub,2013-10-13 15:41:00,
2013-10-13 10:46:00,51.1,41.2,30.31,NW,315,4.0,5.0,69,0.00,,,0.00,meteohub,2013-10-13 15:46:00,
2013-10-13 10:51:00,51.8,41.2,30.30,SW,225,4.0,5.0,67,0.00,,,0.00,meteohub,2013-10-13 15:51:00,
2013-10-13 10:56:00,52.5,41.9,30.30,North,0,4.0,5.0,67,0.00,,,0.00,meteohub,2013-10-13 15:56:00,
2013-10-13 11:01:00,52.9,41.9,30.30,WSW,248,4.0,4.0,66,0.00,,,0.00,meteohub,2013-10-13 16:01:00,
2013-10-13 11:06:00,53.6,42.4,30.30,SW,225,3.0,4.0,66,0.00,,,0.00,meteohub,2013-10-13 16:06:00,
2013-10-13 11:11:00,54.5,43.3,30.30,West,270,4.0,4.0,66,0.00,,,0.00,meteohub,2013-10-13 16:11:00,
2013-10-13 11:17:00,54.9,43.3,30.30,SW,225,4.0,4.0,65,0.00,,,0.00,meteohub,2013-10-13 16:17:00,
2013-10-13 11:22:00,55.8,44.2,30.30,West,270,2.0,5.0,65,0.00,,,0.00,meteohub,2013-10-13 16:22:00,
2013-10-13 11:27:00,56.8,44.8,30.30,SW,225,2.0,5.0,64,0.00,,,0.00,meteohub,2013-10-13 16:27:00,
2013-10-13 11:32:00,57.2,43.9,30.30,North,0,4.0,5.0,61,0.00,,,0.00,meteohub,2013-10-13 16:32:00,
2013-10-13 11:37:00,56.5,42.8,30.30,NE,45,3.0,4.0,60,0.00,,,0.00,meteohub,2013-10-13 16:37:00,
2013-10-13 11:42:00,56.8,43.2,30.30,West,270,4.0,4.0,60,0.00,,,0.00,meteohub,2013-10-13 16:42:00,
2013-10-13 11:47:00,57.6,42.4,30.29,West,270,3.0,7.0,57,0.00,,,0.00,meteohub,2013-10-13 16:47:00,
2013-10-13 11:52:00,58.6,43.5,30.30,NNW,338,5.0,7.0,57,0.00,,,0.00,meteohub,2013-10-13 16:52:00,
2013-10-13 11:57:00,59.0,41.9,30.30,North,0,4.0,7.0,53,0.00,,,0.00,meteohub,2013-10-13 16:57:00,
2013-10-13 12:02:00,58.6,39.6,30.30,North,0,6.0,8.0,49,0.00,,,0.00,meteohub,2013-10-13 17:02:00,
2013-10-13 12:07:00,58.3,35.2,30.30,NW,315,7.0,8.0,42,0.00,,,0.00,meteohub,2013-10-13 17:07:00,
2013-10-13 12:12:00,58.3,36.5,30.29,North,0,2.0,8.0,44,0.00,,,0.00,meteohub,2013-10-13 17:12:00,
2013-10-13 12:17:00,58.5,37.8,30.30,South,180,2.0,8.0,46,0.00,,,0.00,meteohub,2013-10-13 17:17:00,
2013-10-13 12:22:00,58.3,37.6,30.29,North,0,7.0,7.0,46,0.00,,,0.00,meteohub,2013-10-13 17:22:00,
2013-10-13 12:27:00,58.3,38.1,30.29,NE,45,4.0,8.0,47,0.00,,,0.00,meteohub,2013-10-13 17:27:00,
2013-10-13 12:32:00,59.4,38.7,30.28,ESE,113,4.0,8.0,46,0.00,,,0.00,meteohub,2013-10-13 17:32:00,
2013-10-13 12:38:00,59.0,36.5,30.28,ENE,68,3.0,8.0,43,0.00,,,0.00,meteohub,2013-10-13 17:38:00,
2013-10-13 12:43:00,58.6,36.1,30.28,East,90,1.0,8.0,43,0.00,,,0.00,meteohub,2013-10-13 17:43:00,
2013-10-13 12:48:00,59.2,36.7,30.28,South,180,2.0,8.0,43,0.00,,,0.00,meteohub,2013-10-13 17:48:00,
2013-10-13 12:53:00,60.1,36.9,30.28,NNE,23,10.0,10.0,42,0.00,,,0.00,meteohub,2013-10-13 17:53:00,
2013-10-13 12:58:00,58.8,35.2,30.28,North,0,6.0,10.0,41,0.00,,,0.00,meteohub,2013-10-13 17:58:00,
2013-10-13 13:03:00,58.8,35.2,30.28,North,0,9.0,11.0,41,0.00,,,0.00,meteohub,2013-10-13 18:03:00,
2013-10-13 13:08:00,59.0,34.7,30.27,West,270,2.0,11.0,40,0.00,,,0.00,meteohub,2013-10-13 18:08:00,
2013-10-13 13:13:00,59.9,36.1,30.27,NW,315,5.0,9.0,41,0.00,,,0.00,meteohub,2013-10-13 18:13:00,
2013-10-13 13:18:00,59.9,34.9,30.27,WSW,248,8.0,9.0,39,0.00,,,0.00,meteohub,2013-10-13 18:18:00,
2013-10-13 13:23:00,60.1,34.3,30.27,North,0,4.0,8.0,38,0.00,,,0.00,meteohub,2013-10-13 18:23:00,
2013-10-13 13:28:00,59.9,31.5,30.27,NW,315,9.0,9.0,34,0.00,,,0.00,meteohub,2013-10-13 18:28:00,
2013-10-13 13:33:00,59.5,31.8,30.26,NE,45,7.0,8.0,35,0.00,,,0.00,meteohub,2013-10-13 18:33:00,
2013-10-13 13:38:00,59.5,33.3,30.25,NE,45,5.0,10.0,37,0.00,,,0.00,meteohub,2013-10-13 18:38:00,
2013-10-13 13:43:00,59.9,34.9,30.25,North,0,11.0,11.0,39,0.00,,,0.00,meteohub,2013-10-13 18:43:00,
2013-10-13 13:48:00,60.3,33.3,30.26,NW,315,8.0,10.0,36,0.00,,,0.00,meteohub,2013-10-13 18:48:00,
2013-10-13 13:54:00,60.3,31.8,30.25,North,0,8.0,11.0,34,0.00,,,0.00,meteohub,2013-10-13 18:54:00,
2013-10-13 13:59:00,60.1,33.1,30.25,North,0,6.0,11.0,36,0.00,,,0.00,meteohub,2013-10-13 18:59:00,
2013-10-13 14:04:00,60.4,33.4,30.25,North,0,4.0,11.0,36,0.00,,,0.00,meteohub,2013-10-13 19:04:00,
2013-10-13 14:09:00,60.3,33.3,30.24,North,0,9.0,11.0,36,0.00,,,0.00,meteohub,2013-10-13 19:09:00,
2013-10-13 14:14:00,60.3,33.3,30.24,NW,315,1.0,11.0,36,0.00,,,0.00,meteohub,2013-10-13 19:14:00,
2013-10-13 14:19:00,61.0,33.8,30.24,NE,45,5.0,13.0,36,0.00,,,0.00,meteohub,2013-10-13 19:19:00,
2013-10-13 14:24:00,60.4,32.0,30.24,NE,45,3.0,13.0,34,0.00,,,0.00,meteohub,2013-10-13 19:24:00,
2013-10-13 14:29:00,60.8,32.2,30.24,NE,45,5.0,13.0,34,0.00,,,0.00,meteohub,2013-10-13 19:29:00,
2013-10-13 14:34:00,61.2,31.8,30.24,NE,45,4.0,7.0,33,0.00,,,0.00,meteohub,2013-10-13 19:34:00,
2013-10-13 14:39:00,61.5,32.2,30.24,North,0,5.0,7.0,33,0.00,,,0.00,meteohub,2013-10-13 19:39:00,
2013-10-13 14:44:00,61.2,30.2,30.23,ENE,68,3.0,11.0,31,0.00,,,0.00,meteohub,2013-10-13 19:44:00,
2013-10-13 14:49:00,61.7,32.4,30.23,NE,45,3.0,11.0,33,0.00,,,0.00,meteohub,2013-10-13 19:49:00,
2013-10-13 14:54:00,61.2,31.1,30.22,NW,315,8.0,11.0,32,0.00,,,0.00,meteohub,2013-10-13 19:54:00,
2013-10-13 14:59:00,60.4,31.3,30.23,West,270,5.0,8.0,33,0.00,,,0.00,meteohub,2013-10-13 19:59:00,
2013-10-13 15:04:00,60.4,31.3,30.23,NW,315,3.0,9.0,33,0.00,,,0.00,meteohub,2013-10-13 20:04:00,
2013-10-13 15:09:00,60.4,31.3,30.23,NE,45,4.0,9.0,33,0.00,,,0.00,meteohub,2013-10-13 20:09:00,
2013-10-13 15:14:00,61.3,32.0,30.23,SW,225,6.0,8.0,33,0.00,,,0.00,meteohub,2013-10-13 20:14:00,
2013-10-13 15:20:00,61.7,31.5,30.23,North,0,4.0,6.0,32,0.00,,,0.00,meteohub,2013-10-13 20:20:00,
2013-10-13 15:25:00,61.3,31.3,30.23,NE,45,2.0,7.0,32,0.00,,,0.00,meteohub,2013-10-13 20:25:00,
2013-10-13 15:30:00,60.6,32.2,30.22,NW,315,7.0,8.0,34,0.00,,,0.00,meteohub,2013-10-13 20:30:00,
2013-10-13 15:35:00,60.3,32.5,30.22,NW,315,10.0,10.0,35,0.00,,,0.00,meteohub,2013-10-13 20:35:00,
2013-10-13 15:40:00,59.7,32.0,30.22,North,0,6.0,10.0,35,0.00,,,0.00,meteohub,2013-10-13 20:40:00,
2013-10-13 15:45:00,59.2,34.2,30.22,NNW,338,7.0,10.0,39,0.00,,,0.00,meteohub,2013-10-13 20:45:00,
2013-10-13 15:50:00,58.5,34.9,30.22,NE,45,6.0,10.0,41,0.00,,,0.00,meteohub,2013-10-13 20:50:00,
2013-10-13 15:55:00,58.5,34.9,30.23,North,0,6.0,8.0,41,0.00,,,0.00,meteohub,2013-10-13 20:55:00,
2013-10-13 16:00:00,58.8,35.2,30.22,North,0,6.0,8.0,41,0.00,,,0.00,meteohub,2013-10-13 21:00:00,
2013-10-13 16:05:00,59.2,34.9,30.22,NE,45,8.0,8.0,40,0.00,,,0.00,meteohub,2013-10-13 21:05:00,
2013-10-13 16:10:00,60.3,35.8,30.22,NE,45,4.0,8.0,40,0.00,,,0.00,meteohub,2013-10-13 21:10:00,
2013-10-13 16:15:00,61.2,33.3,30.22,North,0,7.0,8.0,35,0.00,,,0.00,meteohub,2013-10-13 21:15:00,
2013-10-13 16:20:00,61.2,32.5,30.22,NE,45,2.0,8.0,34,0.00,,,0.00,meteohub,2013-10-13 21:20:00,
2013-10-13 16:26:00,60.3,33.3,30.23,NE,45,8.0,8.0,36,0.00,,,0.00,meteohub,2013-10-13 21:26:00,
2013-10-13 16:31:00,59.2,32.9,30.22,NE,45,6.0,8.0,37,0.00,,,0.00,meteohub,2013-10-13 21:31:00,
2013-10-13 16:36:00,59.0,32.7,30.22,North,0,5.0,8.0,37,0.00,,,0.00,meteohub,2013-10-13 21:36:00,
2013-10-13 16:41:00,59.4,34.3,30.22,North,0,5.0,8.0,39,0.00,,,0.00,meteohub,2013-10-13 21:41:00,
2013-10-13 16:46:00,60.1,35.6,30.22,NE,45,8.0,8.0,40,0.00,,,0.00,meteohub,2013-10-13 21:46:00,
2013-10-13 16:51:00,60.3,35.8,30.22,NE,45,8.0,8.0,40,0.00,,,0.00,meteohub,2013-10-13 21:51:00,
2013-10-13 16:56:00,60.3,35.8,30.22,NE,45,6.0,8.0,40,0.00,,,0.00,meteohub,2013-10-13 21:56:00,
2013-10-13 17:01:00,60.1,34.3,30.21,NE,45,4.0,8.0,38,0.00,,,0.00,meteohub,2013-10-13 22:01:00,
2013-10-13 17:06:00,60.3,33.8,30.22,NE,45,6.0,8.0,37,0.00,,,0.00,meteohub,2013-10-13 22:06:00,
2013-10-13 17:11:00,60.3,34.5,30.22,NE,45,4.0,8.0,38,0.00,,,0.00,meteohub,2013-10-13 22:11:00,
2013-10-13 17:16:00,60.4,35.4,30.22,NE,45,4.0,8.0,39,0.00,,,0.00,meteohub,2013-10-13 22:16:00,
2013-10-13 17:21:00,60.8,35.1,30.22,NE,45,4.0,8.0,38,0.00,,,0.00,meteohub,2013-10-13 22:21:00,
2013-10-13 17:26:00,60.4,36.0,30.21,NE,45,5.0,6.0,40,0.00,,,0.00,meteohub,2013-10-13 22:26:00,
2013-10-13 17:31:00,59.7,36.0,30.21,NE,45,6.0,7.0,41,0.00,,,0.00,meteohub,2013-10-13 22:31:00,
2013-10-13 17:36:00,59.2,36.7,30.22,NE,45,4.0,7.0,43,0.00,,,0.00,meteohub,2013-10-13 22:36:00,
2013-10-13 17:41:00,59.0,36.5,30.22,NE,45,6.0,7.0,43,0.00,,,0.00,meteohub,2013-10-13 22:41:00,
2013-10-13 17:46:00,58.8,37.0,30.22,East,90,5.0,6.0,44,0.00,,,0.00,meteohub,2013-10-13 22:46:00,
2013-10-13 17:52:00,58.3,36.5,30.22,NE,45,5.0,6.0,44,0.00,,,0.00,meteohub,2013-10-13 22:52:00,
2013-10-13 17:57:00,56.8,35.8,30.22,East,90,5.0,6.0,45,0.00,,,0.00,meteohub,2013-10-13 22:57:00,
2013-10-13 18:02:00,55.6,35.1,30.22,East,90,6.0,7.0,46,0.00,,,0.00,meteohub,2013-10-13 23:02:00,
2013-10-13 18:07:00,55.0,35.2,30.21,East,90,5.0,7.0,47,0.00,,,0.00,meteohub,2013-10-13 23:07:00,
2013-10-13 18:12:00,54.7,35.4,30.21,East,90,4.0,7.0,48,0.00,,,0.00,meteohub,2013-10-13 23:12:00,
2013-10-13 18:17:00,54.0,34.7,30.21,East,90,5.0,7.0,48,0.00,,,0.00,meteohub,2013-10-13 23:17:00,
2013-10-13 18:22:00,54.1,34.9,30.21,East,90,4.0,5.0,48,0.00,,,0.00,meteohub,2013-10-13 23:22:00,
2013-10-13 18:27:00,54.0,34.7,30.22,NE,45,4.0,5.0,48,0.00,,,0.00,meteohub,2013-10-13 23:27:00,
2013-10-13 18:32:00,53.2,35.1,30.22,NE,45,6.0,6.0,50,0.00,,,0.00,meteohub,2013-10-13 23:32:00,
2013-10-13 18:37:00,53.1,34.9,30.22,ENE,68,5.0,6.0,50,0.00,,,0.00,meteohub,2013-10-13 23:37:00,
2013-10-13 18:42:00,53.2,35.1,30.22,ENE,68,5.0,6.0,50,0.00,,,0.00,meteohub,2013-10-13 23:42:00,
2013-10-13 18:47:00,52.9,34.7,30.22,NE,45,4.0,6.0,50,0.00,,,0.00,meteohub,2013-10-13 23:47:00,
2013-10-13 18:52:00,52.5,34.3,30.22,NE,45,4.0,6.0,50,0.00,,,0.00,meteohub,2013-10-13 23:52:00,
2013-10-13 18:57:00,52.3,34.7,30.22,NE,45,4.0,5.0,51,0.00,,,0.00,meteohub,2013-10-13 23:57:00,
2013-10-13 19:02:00,51.8,34.2,30.21,East,90,5.0,5.0,51,0.00,,,0.00,meteohub,2013-10-14 00:02:00,
2013-10-13 19:07:00,51.4,34.9,30.21,NE,45,4.0,5.0,53,0.00,,,0.00,meteohub,2013-10-14 00:07:00,
2013-10-13 19:12:00,50.9,34.9,30.21,East,90,5.0,5.0,54,0.00,,,0.00,meteohub,2013-10-14 00:12:00,
2013-10-13 19:17:00,50.4,34.9,30.21,East,90,4.0,5.0,55,0.00,,,0.00,meteohub,2013-10-14 00:17:00,
2013-10-13 19:23:00,49.8,35.6,30.21,East,90,5.0,5.0,58,0.00,,,0.00,meteohub,2013-10-14 00:23:00,
2013-10-13 19:28:00,49.3,35.6,30.22,East,90,5.0,6.0,59,0.00,,,0.00,meteohub,2013-10-14 00:28:00,
2013-10-13 19:33:00,48.9,36.1,30.21,ENE,68,5.0,6.0,61,0.00,,,0.00,meteohub,2013-10-14 00:33:00,
2013-10-13 19:38:00,48.6,35.8,30.22,East,90,6.0,6.0,61,0.00,,,0.00,meteohub,2013-10-14 00:38:00,
2013-10-13 19:43:00,48.4,36.0,30.22,ENE,68,6.0,6.0,62,0.00,,,0.00,meteohub,2013-10-14 00:43:00,
2013-10-13 19:48:00,48.6,36.1,30.22,East,90,5.0,6.0,62,0.00,,,0.00,meteohub,2013-10-14 00:48:00,
2013-10-13 19:53:00,48.4,36.0,30.22,NE,45,5.0,6.0,62,0.00,,,0.00,meteohub,2013-10-14 00:53:00,
2013-10-13 19:58:00,47.8,35.8,30.21,ENE,68,5.0,6.0,63,0.00,,,0.00,meteohub,2013-10-14 00:58:00,
2013-10-13 20:03:00,47.1,35.6,30.21,ENE,68,7.0,7.0,64,0.00,,,0.00,meteohub,2013-10-14 01:03:00,
2013-10-13 20:08:00,47.1,35.6,30.21,East,90,8.0,8.0,64,0.00,,,0.00,meteohub,2013-10-14 01:08:00,
2013-10-13 20:13:00,46.8,35.2,30.21,SE,135,6.0,7.0,64,0.00,,,0.00,meteohub,2013-10-14 01:13:00,
2013-10-13 20:18:00,46.4,34.9,30.21,ENE,68,6.0,8.0,64,0.00,,,0.00,meteohub,2013-10-14 01:18:00,
2013-10-13 20:23:00,46.4,35.2,30.21,East,90,7.0,8.0,65,0.00,,,0.00,meteohub,2013-10-14 01:23:00,
2013-10-13 20:28:00,46.6,35.4,30.22,SE,135,6.0,8.0,65,0.00,,,0.00,meteohub,2013-10-14 01:28:00,
2013-10-13 20:33:00,46.6,35.4,30.21,ENE,68,8.0,8.0,65,0.00,,,0.00,meteohub,2013-10-14 01:33:00,
2013-10-13 20:38:00,46.8,35.6,30.21,ENE,68,7.0,9.0,65,0.00,,,0.00,meteohub,2013-10-14 01:38:00,
2013-10-13 20:44:00,46.9,35.4,30.21,East,90,6.0,9.0,64,0.00,,,0.00,meteohub,2013-10-14 01:44:00,
2013-10-13 20:49:00,46.9,35.4,30.21,SE,135,8.0,9.0,64,0.00,,,0.00,meteohub,2013-10-14 01:49:00,
2013-10-13 20:54:00,46.6,35.1,30.21,East,90,6.0,8.0,64,0.00,,,0.00,meteohub,2013-10-14 01:54:00,
2013-10-13 20:59:00,46.4,34.9,30.21,ENE,68,7.0,8.0,64,0.00,,,0.00,meteohub,2013-10-14 01:59:00,
2013-10-13 21:04:00,46.2,34.7,30.21,East,90,7.0,8.0,64,0.00,,,0.00,meteohub,2013-10-14 02:04:00,
2013-10-13 21:09:00,45.9,34.3,30.21,ENE,68,6.0,8.0,64,0.00,,,0.00,meteohub,2013-10-14 02:09:00,
2013-10-13 21:14:00,45.9,34.3,30.22,East,90,7.0,8.0,64,0.00,,,0.00,meteohub,2013-10-14 02:14:00,
2013-10-13 21:19:00,45.9,34.7,30.21,East,90,6.0,7.0,65,0.00,,,0.00,meteohub,2013-10-14 02:19:00,
2013-10-13 21:24:00,46.2,34.7,30.21,ESE,113,4.0,7.0,64,0.00,,,0.00,meteohub,2013-10-14 02:24:00,
2013-10-13 21:29:00,46.6,35.1,30.21,East,90,8.0,8.0,64,0.00,,,0.00,meteohub,2013-10-14 02:29:00,
2013-10-13 21:34:00,46.8,34.9,30.21,East,90,6.0,8.0,63,0.00,,,0.00,meteohub,2013-10-14 02:34:00,
2013-10-13 21:39:00,46.2,34.3,30.22,SE,135,6.0,8.0,63,0.00,,,0.00,meteohub,2013-10-14 02:39:00,
2013-10-13 21:44:00,45.9,34.0,30.22,SE,135,6.0,8.0,63,0.00,,,0.00,meteohub,2013-10-14 02:44:00,
2013-10-13 21:49:00,46.0,34.2,30.22,ENE,68,7.0,8.0,63,0.00,,,0.00,meteohub,2013-10-14 02:49:00,
2013-10-13 21:55:00,45.7,33.8,30.22,East,90,7.0,7.0,63,0.00,,,0.00,meteohub,2013-10-14 02:55:00,
2013-10-13 22:00:00,45.5,34.0,30.22,ENE,68,5.0,9.0,64,0.00,,,0.00,meteohub,2013-10-14 03:00:00,
2013-10-13 22:05:00,45.0,34.0,30.22,East,90,6.0,9.0,65,0.00,,,0.00,meteohub,2013-10-14 03:05:00,
2013-10-13 22:10:00,44.6,33.6,30.22,East,90,7.0,9.0,65,0.00,,,0.00,meteohub,2013-10-14 03:10:00,
2013-10-13 22:15:00,44.6,34.0,30.22,SE,135,7.0,7.0,66,0.00,,,0.00,meteohub,2013-10-14 03:15:00,
2013-10-13 22:20:00,44.8,34.5,30.22,ENE,68,5.0,8.0,67,0.00,,,0.00,meteohub,2013-10-14 03:20:00,
2013-10-13 22:25:00,44.6,34.3,30.22,East,90,4.0,8.0,67,0.00,,,0.00,meteohub,2013-10-14 03:25:00,
2013-10-13 22:30:00,44.8,34.5,30.23,East,90,4.0,8.0,67,0.00,,,0.00,meteohub,2013-10-14 03:30:00,
2013-10-13 22:35:00,45.0,34.3,30.23,SE,135,4.0,5.0,66,0.00,,,0.00,meteohub,2013-10-14 03:35:00,
2013-10-13 22:40:00,44.6,34.0,30.23,SE,135,4.0,5.0,66,0.00,,,0.00,meteohub,2013-10-14 03:40:00,
2013-10-13 22:45:00,44.6,34.0,30.23,SE,135,7.0,7.0,66,0.00,,,0.00,meteohub,2013-10-14 03:45:00,
2013-10-13 22:50:00,44.6,34.0,30.23,East,90,7.0,8.0,66,0.00,,,0.00,meteohub,2013-10-14 03:50:00,
2013-10-13 22:56:00,44.4,34.2,30.24,East,90,4.0,8.0,67,0.00,,,0.00,meteohub,2013-10-14 03:56:00,
2013-10-13 23:01:00,43.9,33.6,30.23,ENE,68,5.0,8.0,67,0.00,,,0.00,meteohub,2013-10-14 04:01:00,
2013-10-13 23:02:00,43.9,33.6,30.24,SE,135,5.0,8.0,67,0.00,,,0.00,meteohub,2013-10-14 04:02:00,
2013-10-13 23:06:00,43.7,33.8,30.23,East,90,6.0,7.0,68,0.00,,,0.00,meteohub,2013-10-14 04:06:00,
2013-10-13 23:11:00,43.3,33.8,30.23,SE,135,8.0,8.0,69,0.00,,,0.00,meteohub,2013-10-14 04:11:00,
2013-10-13 23:16:00,43.3,33.8,30.23,SE,135,8.0,8.0,69,0.00,,,0.00,meteohub,2013-10-14 04:16:00,
2013-10-13 23:21:00,43.7,34.5,30.23,SE,135,7.0,8.0,70,0.00,,,0.00,meteohub,2013-10-14 04:21:00,
2013-10-13 23:26:00,43.9,34.7,30.23,SE,135,6.0,8.0,70,0.00,,,0.00,meteohub,2013-10-14 04:26:00,
2013-10-13 23:31:00,44.1,34.9,30.24,SE,135,8.0,8.0,70,0.00,,,0.00,meteohub,2013-10-14 04:31:00,
2013-10-13 23:37:00,44.2,35.1,30.23,SE,135,8.0,8.0,70,0.00,,,0.00,meteohub,2013-10-14 04:37:00,
2013-10-13 23:42:00,44.6,35.1,30.24,SE,135,8.0,9.0,69,0.00,,,0.00,meteohub,2013-10-14 04:42:00,
2013-10-13 23:47:00,44.4,35.2,30.23,SE,135,10.0,10.0,70,0.00,,,0.00,meteohub,2013-10-14 04:47:00,
2013-10-13 23:53:00,44.4,35.2,30.23,SE,135,10.0,10.0,70,0.00,,,0.00,meteohub,2013-10-14 04:53:00,
2013-10-13 23:58:00,44.4,35.2,30.24,SE,135,11.0,11.0,70,0.00,,,0.00,meteohub,2013-10-14 04:58:00,